Kekaha, HI

11:40 AM HST on February 25, 2017 (GMT -1000)
Barking Sands PMRF

Weather History for PHBK - September, 2014

Change the Weather History Date:

Thursday, September 18, 2014

  Actual Average Record
Temperature  
Mean Temperature 78 °F -  
Max Temperature 84 °F 88 °F 90 °F (1976)
Min Temperature 73 °F 67 °F 64 °F (1974)
Cooling Degree Days 14    
Growing Degree Days 28 (Base 50)    
Moisture  
Dew Point 72 °F    
Average Humidity 82    
Maximum Humidity 90    
Minimum Humidity 67    
Precipitation  
Precipitation 0.05 in - - ()
Sea Level Pressure  
Sea Level Pressure 29.93 in    
Wind  
Wind Speed 4 mph (ESE)    
Max Wind Speed 10 mph    
Max Gust Speed -    
Visibility 9 miles    
Events Rain    
Averages and records for this station are not official NWS values.
T = Trace of Precipitation, MM = Missing Value Source: NWS Daily Summary

Daily Weather History Graph

Daily Weather History Graph

Search for Another Location

Airport or City:

Trip Planner

Search our weather history database for the weather conditions in past years. The results will help you decide how hot, cold, wet, or windy it might be!

Date:

Astronomy

Sep. 18, 2014 Rise Set
Actual Time 6:26 AM HST 6:39 PM HST
Civil Twilight 6:04 AM HST 7:01 PM HST
Nautical Twilight 5:38 AM HST 7:27 PM HST
Astronomical Twilight 5:12 AM HST 7:53 PM HST
Moon 1:56 AM HST (9/18) 3:13 PM HST (9/18)
Length of Visible Light 12h 56m
Length of Day
12h 12m
Waning Crescent, 24% of the Moon is Illuminated
Sep 18
Waning Crescent
Sep 23
New
Oct 1
First Quarter
Oct 8
Full
Oct 15
Last Quarter

Hourly Weather History & Observations

Time (HST) Temp. Heat Index Dew Point Humidity Pressure Visibility Wind Dir Wind Speed Gust Speed Precip Events Conditions
12:56 AM 78.1 °F - 71.1 °F 79% 29.95 in 10.0 mi East 3.5 mph - N/A   Mostly Cloudy
1:56 AM 77.0 °F - 70.0 °F 79% 29.94 in 10.0 mi ENE 3.5 mph - N/A   Scattered Clouds
2:56 AM 75.9 °F - 70.0 °F 82% 29.92 in 10.0 mi NE 3.5 mph - N/A   Partly Cloudy
3:56 AM 75.0 °F - 71.1 °F 87% 29.91 in 10.0 mi ENE 4.6 mph - N/A   Mostly Cloudy
4:56 AM 75.9 °F - 71.1 °F 85% 29.91 in 10.0 mi ENE 3.5 mph - N/A   Overcast
5:56 AM 75.0 °F - 70.0 °F 84% 29.93 in 10.0 mi East 3.5 mph - N/A   Clear
6:56 AM 77.0 °F - 71.1 °F 82% 29.94 in 10.0 mi ENE 3.5 mph - N/A   Mostly Cloudy
7:25 AM 78.8 °F - 71.6 °F 78% 29.94 in 6.2 mi Calm Calm - N/A   Mostly Cloudy
7:56 AM 81.0 °F 85.8 °F 73.0 °F 77% 29.96 in 10.0 mi Calm Calm - N/A   Overcast
8:41 AM 80.6 °F 85.4 °F 73.4 °F 79% 29.95 in 6.2 mi Variable 3.5 mph - 0.00 in   Scattered Clouds
8:56 AM 82.0 °F 87.4 °F 73.0 °F 74% 29.96 in 10.0 mi WSW 4.6 mph - 0.00 in   Mostly Cloudy
9:56 AM 82.9 °F 89.4 °F 73.9 °F 74% 29.96 in 10.0 mi West 4.6 mph - N/A   Clear
10:56 AM 84.0 °F 90.2 °F 73.0 °F 69% 29.96 in 10.0 mi WNW 6.9 mph - N/A   Clear
11:56 AM 84.0 °F 89.6 °F 72.0 °F 67% 29.94 in 10.0 mi West 6.9 mph - N/A   Clear
12:56 PM 84.0 °F 90.2 °F 73.0 °F 69% 29.93 in 10.0 mi Variable 3.5 mph - 0.00 in Rain Light Rain
1:23 PM 80.6 °F 85.4 °F 73.4 °F 79% 29.92 in 10.0 mi SE 9.2 mph - 0.00 in   Overcast
1:39 PM 80.6 °F 85.4 °F 73.4 °F 79% 29.91 in 10.0 mi SE 8.1 mph - 0.00 in   Overcast
1:56 PM 81.0 °F 86.2 °F 73.9 °F 79% 29.92 in 10.0 mi ESE 10.4 mph - 0.00 in   Overcast
2:56 PM 82.0 °F 86.3 °F 71.1 °F 69% 29.91 in 10.0 mi ESE 6.9 mph - N/A   Overcast
3:07 PM 80.6 °F 84.6 °F 71.6 °F 74% 29.90 in 5.0 mi NE 9.2 mph - 0.01 in Rain Rain
3:12 PM 78.8 °F - 71.6 °F 78% 29.90 in - Calm Calm - 0.02 in Rain Rain
3:24 PM 77.0 °F - 73.4 °F 89% 29.90 in 2.5 mi Calm Calm - 0.03 in Rain Rain
3:32 PM 78.8 °F - 73.4 °F 83% 29.90 in 6.2 mi South 3.5 mph - 0.03 in Rain Light Rain
3:39 PM 78.8 °F - 73.4 °F 83% 29.90 in 10.0 mi South 4.6 mph - 0.03 in   Overcast
3:56 PM 79.0 °F - 73.9 °F 84% 29.90 in 10.0 mi SE 4.6 mph - 0.04 in   Overcast
4:56 PM 79.0 °F - 72.0 °F 79% 29.91 in 10.0 mi SE 8.1 mph - N/A   Overcast
5:18 PM 77.0 °F - 73.4 °F 89% 29.91 in 2.5 mi SE 6.9 mph - 0.00 in Rain Light Rain
5:23 PM 77.0 °F - 73.4 °F 89% 29.91 in 1.8 mi SE 5.8 mph - 0.01 in Rain Rain
5:30 PM 77.0 °F - 73.4 °F 89% 29.91 in 2.5 mi SE 4.6 mph - 0.01 in Rain Light Rain
5:38 PM 77.0 °F - 73.4 °F 89% 29.91 in 6.2 mi ESE 3.5 mph - 0.01 in Rain Light Rain
5:43 PM 77.0 °F - 73.4 °F 89% 29.91 in 10.0 mi SE 5.8 mph - 0.01 in   Overcast
5:56 PM 77.0 °F - 73.0 °F 88% 29.92 in 10.0 mi SE 6.9 mph - 0.01 in   Overcast
6:08 PM 75.2 °F - 71.6 °F 89% 29.92 in 10.0 mi SE 6.9 mph - N/A   Overcast
6:56 PM 75.9 °F - 71.1 °F 85% 29.94 in 10.0 mi Calm Calm - N/A   Overcast
7:56 PM 77.0 °F - 72.0 °F 84% 29.94 in 10.0 mi Calm Calm - N/A   Mostly Cloudy
8:56 PM 75.0 °F - 72.0 °F 90% 29.96 in 10.0 mi Calm Calm - N/A   Clear
9:56 PM 73.9 °F - 70.0 °F 87% 29.97 in 10.0 mi East 3.5 mph - N/A   Clear
10:56 PM 73.9 °F - 70.0 °F 87% 29.96 in 10.0 mi East 4.6 mph - N/A   Clear
11:56 PM 73.9 °F - 69.1 °F 85% 29.95 in 10.0 mi ENE 4.6 mph - N/A   Clear